Simultaneous Nadir Overpasses (SNOs) Predictions

Prediction of SNOs between FY3D and NOAA-19 Satellite Orbit:

Table of predicted SNOs for the next 14.0 days since TLE Epoch: 10/7/2023
Index Date (FY3D) Time (FY3D) Lat,Lon (FY3D) SZA (FY3D ) Date (NOAA-19) Time (NOAA-19) Lat,Lon (NOAA-19) SZA (NOAA-19 ) Distance(km) Time Diff (sec)
1 10/09/2023 02:48:17 -75.94, -47.04 98.01 10/09/2023 02:47:10 -75.94, -50.01 97.96 80.15 67
2 10/09/2023 03:39:12 76.35, 118.78 82.44 10/09/2023 03:37:59 76.36, 118.80 82.45 0.85 73
3 10/09/2023 04:29:58 -76.37, -73.99 97.53 10/09/2023 04:28:59 -76.37, -73.89 97.53 2.47 59
4 10/09/2023 05:20:44 76.38, 93.29 82.50 10/09/2023 05:19:58 76.35, 93.27 82.47 3.79 46
5 10/09/2023 06:11:29 -76.36, -99.31 97.52 10/09/2023 06:10:58 -76.36, -99.43 97.51 2.99 31
6 10/09/2023 07:02:15 76.37, 67.96 82.51 10/09/2023 07:01:56 76.38, 67.91 82.53 2.09 19
7 10/09/2023 07:53:01 -76.39,-124.81 97.46 10/09/2023 07:52:56 -76.40,-124.79 97.45 1.03 5
8 10/09/2023 08:43:47 76.40, 42.46 82.57 10/09/2023 08:43:54 76.42, 42.55 82.59 2.86 7
9 10/09/2023 09:34:33 -76.42,-150.30 97.40 10/09/2023 09:34:55 -76.39,-150.32 97.43 3.70 22
10 10/09/2023 10:25:19 76.43, 16.97 82.63 10/09/2023 10:25:53 76.41, 17.02 82.60 2.86 34
11 10/09/2023 11:16:04 -76.41,-175.63 97.39 10/09/2023 11:16:53 -76.42,-175.68 97.38 2.12 49
12 10/09/2023 12:06:50 76.42, -8.36 82.64 10/09/2023 12:07:51 76.44, -8.34 82.66 2.73 61
13 10/09/2023 12:57:37 -76.48, 158.71 97.28 10/09/2023 12:58:51 -76.45, 158.95 97.32 7.11 74



Historial Predications of SNOs between FY3D and NOAA-19
